x

Nfb - Northwest Florida Bay, Fl (nfbf1) Weather Station

1:54am - Wed 30th Jul 2014 All times are CDT. -4 hours from GMT.

  • Wind
    9mph, 11mph gusts
  • Air Temp 87°f
  • Sea Pressure 1015.6mb
  • Nfb - Northwest Florida Bay, Fl
  • Nfb - Northwest Florida Bay, Fl

More Historic Weather Station data

Upgrade to MSW Pro to gain access to the past 30 days of data for over 8000 Wavebouys and Weather Stations around the globe.

Join Pro

Comparision Forecast

View Surf forecast
   
Wed 07/30 1:54am 9 11 mph 1015.6mb 87f
1:48am 9 11 mph 1015.6mb 87f
1:42am 8 11 mph 1015.6mb 87f
1:36am 8 10 mph 1015.7mb 87f
12:54am 8 10 mph 1015.9mb 88f
12:48am 8 10 mph 1016mb 88f
12:42am 8 10 mph 1016mb 88f
12:36am 9 11 mph 1016mb 88f
Tue 07/29 11:54pm 9 10 mph 1016.2mb 87f
11:48pm 9 13 mph 1016.2mb 87f
11:42pm 9 11 mph 1016.1mb 87f
11:36pm 8 11 mph 1016.1mb 87f
10:54pm 9 10 mph 1015.9mb 87f
10:48pm 8 10 mph 1015.9mb 87f
10:42pm 9 11 mph 1015.9mb 87f
10:36pm 8 11 mph 1016mb 87f
9:54pm 9 13 mph 1015.9mb 88f
9:48pm 10 13 mph 1015.9mb 88f
9:42pm 10 13 mph 1015.9mb 88f
9:36pm 10 13 mph 1015.9mb 88f
8:54pm 13 15 mph 1016.1mb 88f
8:48pm 13 16 mph 1016.1mb 88f
8:42pm 13 14 mph 1016mb 88f
8:36pm 13 15 mph 1016mb 88f
7:54pm 11 15 mph 1015.8mb 88f
7:48pm 11 16 mph 1015.8mb 88f
7:42pm 14 16 mph 1015.9mb 88f
7:36pm 13 16 mph 1015.9mb 88f
6:54pm 13 15 mph 1015.9mb 88f
6:48pm 13 15 mph 1016mb 88f
6:42pm 11 15 mph 1015.9mb 88f
6:36pm 14 16 mph 1015.9mb 88f
5:54pm 11 15 mph 1015.7mb 88f
5:48pm 13 15 mph 1015.7mb 88f
5:42pm 13 15 mph 1015.6mb 88f
5:36pm 13 15 mph 1015.7mb 87f
4:54pm 11 14 mph 1015.5mb 88f
4:48pm 13 15 mph 1015.5mb 88f
4:42pm 13 14 mph 1015.7mb 88f
4:36pm 13 15 mph 1015.8mb 88f
4:30pm 13 15 mph 1015.9mb 88f
4:24pm 13 15 mph 1015.9mb 88f
4:18pm 13 14 mph 1016mb 88f
4:12pm 11 14 mph 1016mb 88f
4:06pm 13 15 mph 1015.9mb 87f
4:00pm 14 16 mph 1016mb 87f
3:54pm 14 16 mph 1016.1mb 87f
3:48pm 13 16 mph 1016.1mb 87f
3:42pm 13 16 mph 1016mb 87f
3:36pm 13 15 mph 1016mb 87f
2:54pm 11 14 mph 1016.5mb 88f
2:48pm 11 14 mph 1016.6mb 88f
2:42pm 11 15 mph 1016.7mb 88f
2:36pm 11 14 mph 1016.7mb 88f
1:54pm 11 14 mph 1016.8mb 88f
1:48pm 11 14 mph 1017mb 88f
1:42pm 11 13 mph 1017.1mb 88f
1:36pm 10 13 mph 1017.2mb 88f
1:30pm 10 13 mph 1017.2mb 87f
1:24pm 9 14 mph 1017.3mb 87f
1:18pm 10 14 mph 1017.4mb 87f
1:12pm 10 14 mph 1017.4mb 87f
1:06pm 11 13 mph 1017.4mb 87f
1:00pm 10 14 mph 1017.5mb 87f
12:54pm 11 15 mph 1017.5mb 87f
12:48pm 10 13 mph 1017.5mb 87f
12:42pm 11 14 mph 1017.5mb 87f
12:36pm 10 11 mph 1017.3mb 87f
11:54am 10 14 mph 1017.5mb 87f
11:48am 11 14 mph 1017.5mb 87f
11:42am 11 14 mph 1017.5mb 87f
11:36am 11 15 mph 1017.6mb 87f
10:54am 10 13 mph 1017.3mb 87f
10:48am 10 13 mph 1017.2mb 87f
10:42am 9 11 mph 1017.3mb 87f
10:36am 10 13 mph 1017.1mb 87f
9:54am 10 14 mph 1016.6mb 87f
9:48am 10 14 mph 1016.5mb 87f
9:42am 10 14 mph 1016.5mb 87f
9:36am 9 13 mph 1016.5mb 87f
8:54am 8 10 mph 1016.4mb 87f
8:48am 8 13 mph 1016.3mb 87f
8:42am 8 11 mph 1016.2mb 87f
8:36am 8 10 mph 1016.1mb 87f
7:54am 9 11 mph 1016mb 87f
7:48am 7 9 mph 1016mb 87f
7:42am 8 10 mph 1015.9mb 87f
7:36am 9 11 mph 1015.9mb 87f
6:54am 9 11 mph 1015.9mb 87f
6:48am 10 11 mph 1016mb 87f
6:42am 9 13 mph 1015.9mb 87f
6:36am 7 9 mph 1015.9mb 87f
6:30am 9 13 mph 1015.9mb 87f
6:24am 9 11 mph 1015.8mb 87f
6:18am 9 11 mph 1015.8mb 87f
6:12am 9 11 mph 1015.7mb 87f
6:06am 10 14 mph 1015.7mb 87f
6:00am 10 11 mph 1015.7mb 87f
5:54am 10 13 mph 1015.6mb 87f
5:48am 10 15 mph 1015.6mb 87f
5:42am 8 10 mph 1015.5mb 86f
5:36am 9 13 mph 1015.5mb 86f
4:54am 7 8 mph 1015.7mb 86f
4:48am 8 9 mph 1015.7mb 86f
4:42am 8 11 mph 1015.7mb 86f
4:36am 8 10 mph 1015.8mb 86f
3:54am 8 9 mph 1016mb 86f
3:48am 8 11 mph 1016.1mb 86f
3:42am 8 10 mph 1016.1mb 86f
3:36am 7 8 mph 1016.2mb 86f
2:54am 7 8 mph 1016.6mb 87f
2:48am 6 8 mph 1016.7mb 87f
2:42am 6 8 mph 1016.7mb 87f
2:36am 5 7 mph 1016.8mb 87f
1:54am 7 9 mph 1017.2mb 87f
1:48am 6 8 mph 1017.2mb 87f
1:42am 7 9 mph 1017.4mb 87f
1:36am 6 8 mph 1017.5mb 87f
12:54am 6 8 mph 1018mb 87f
12:48am 6 7 mph 1018mb 87f
12:42am 6 8 mph 1018mb 87f
12:36am 3 6 mph 1018mb 87f
Mon 07/28 11:54pm 5 8 mph 1017.9mb 87f
11:48pm 5 6 mph 1017.9mb 87f
11:42pm 6 7 mph 1017.9mb 87f
11:36pm 6 7 mph 1017.9mb 87f
10:54pm 5 7 mph 1017.7mb 87f
10:48pm 6 7 mph 1017.9mb 87f
10:42pm 6 8 mph 1017.9mb 87f
10:36pm 6 7 mph 1017.9mb 87f
10:30pm 6 7 mph 1017.8mb 87f
10:24pm 6 9 mph 1017.7mb 87f
10:18pm 6 8 mph 1017.6mb 87f
10:12pm 7 9 mph 1017.6mb 87f
10:06pm 6 8 mph 1017.6mb 87f
10:00pm 8 9 mph 1017.7mb 87f
9:54pm 8 10 mph 1017.6mb 87f
9:48pm 6 10 mph 1017.6mb 87f
9:42pm 6 9 mph 1017.5mb 87f
9:36pm 8 10 mph 1017.5mb 87f
9:30pm 7 9 mph 1017.4mb 87f
9:24pm 7 9 mph 1017.3mb 87f
9:18pm 7 9 mph 1017.3mb 87f
9:12pm 7 8 mph 1017.2mb 87f
9:06pm 7 10 mph 1017.2mb 87f
9:00pm 7 9 mph 1017.2mb 87f
8:54pm 8 9 mph 1017.2mb 87f
8:48pm 6 9 mph 1017.2mb 87f
8:42pm 6 7 mph 1017.1mb 87f
8:36pm 7 8 mph 1017.1mb 87f
8:30pm 6 7 mph 1017.1mb 87f
8:24pm 6 8 mph 1017.1mb 87f
8:18pm 6 8 mph 1017.1mb 87f
8:12pm 5 7 mph 1017.1mb 87f
8:06pm 6 8 mph 1017.2mb 87f
8:00pm 6 7 mph 1017.2mb 87f
7:54pm 6 9 mph 1017.2mb 88f
7:48pm 6 9 mph 1017.2mb 88f
7:42pm 6 8 mph 1017.3mb 88f
7:36pm 6 8 mph 1017.2mb 88f
6:54pm 7 9 mph 1017.1mb 88f
6:48pm 7 9 mph 1017.1mb 88f
6:42pm 7 9 mph 1017mb 88f
6:36pm 7 9 mph 1017mb 88f
5:54pm 6 8 mph 1017.2mb 88f
5:48pm 8 10 mph 1017.2mb 88f
5:42pm 7 8 mph 1017.3mb 88f
5:36pm 7 10 mph 1017.3mb 88f
5:30pm 7 10 mph 1017.4mb 88f
5:24pm 8 9 mph 1017.4mb 88f
5:18pm 8 9 mph 1017.4mb 88f
5:12pm 8 10 mph 1017.5mb 88f
5:06pm 8 10 mph 1017.5mb 88f
5:00pm 7 11 mph 1017.5mb 88f
4:54pm 7 9 mph 1017.5mb 88f
4:48pm 8 9 mph 1017.5mb 88f
4:42pm 8 9 mph 1017.6mb 87f
4:36pm 7 9 mph 1017.5mb 87f
3:54pm 7 8 mph 1017.7mb 87f
3:48pm 6 9 mph 1017.8mb 87f
3:42pm 6 8 mph 1017.8mb 87f
3:36pm 6 8 mph 1017.9mb 87f
2:54pm 6 7 mph 1018.4mb 87f
2:48pm 6 7 mph 1018.4mb 87f
2:42pm 5 7 mph 1018.4mb 87f
2:36pm 5 8 mph 1018.5mb 87f
2:30pm 3 6 mph 1018.6mb 87f
2:24pm 3 6 mph 1018.6mb 87f
2:18pm 3 6 mph 1018.6mb 87f
2:12pm 3 5 mph 1018.6mb 87f
2:06pm 3 6 mph 1018.7mb 87f
2:00pm 5 6 mph 1018.7mb 87f